AO-07 1 07530U 74089B 24192.92637009 -.00000040 00000-0 38428-4 0 9991 2 07530 101.9783 187.7970 0012532 40.4152 14.6972 12.53676800272259 UO-11 1 14781U 84021B 24193.65436191 .00002176 00000-0 24976-3 0 9997 2 14781 97.7060 162.1943 0008139 8.4824 351.6529 14.86844631173125 AO-27 1 22825U 93061C 24193.87844486 .00000188 00000-0 89531-4 0 9993 2 22825 98.7870 246.9100 0008570 14.6388 345.5041 14.30519635606418 FO-29 1 24278U 96046B 24193.51991488 .00000016 00000-0 49881-4 0 9993 2 24278 98.5801 124.9859 0350852 125.1304 238.3251 13.53192234377973 NOAA-15 1 25338U 98030A 24193.64395576 .00000295 00000-0 14014-3 0 9994 2 25338 98.5673 220.2590 0009151 250.7589 109.2601 14.26624347360921 GO-32 1 25397U 98043D 24193.47742659 .00000145 00000-0 82923-4 0 9991 2 25397 98.9228 160.5646 0002412 88.7857 271.3597 14.24067218351093 ISS 1 25544U 98067A 24193.70440880 .00012093 00000-0 22113-3 0 9997 2 25544 51.6371 193.8762 0010319 55.2719 304.9240 15.49751494462355 NO-44 1 26931U 01043C 24193.59447108 .00000206 00000-0 10903-3 0 9990 2 26931 67.0509 268.4971 0007514 276.6334 83.3913 14.31273128189440 SO-50 1 27607U 02058C 24193.27091734 .00002043 00000-0 29240-3 0 9998 2 27607 64.5546 147.5143 0025737 99.7362 260.6650 14.79119143159885 CO-55 1 27844U 03031E 24193.55474312 .00000503 00000-0 24109-3 0 9999 2 27844 98.6766 200.2440 0011016 76.1020 284.1384 14.23308531 91253 CO-57 1 27848U 03031J 24193.56884286 .00000423 00000-0 20808-3 0 9992 2 27848 98.6795 200.4889 0010942 90.4006 269.8426 14.22743546 91006 RS-22 1 27939U 03042A 24193.70710456 .00001635 00000-0 28065-3 0 9997 2 27939 98.2937 350.2988 0011599 348.6913 21.9722 14.70074726111884 NOAA-18 1 28654U 05018A 24193.70443776 .00000280 00000-0 17282-3 0 9999 2 28654 98.8740 270.4660 0013962 358.4943 1.6185 14.13250016986721 CO-58 1 28895U 05043F 24193.30451535 .00002215 00000-0 39589-3 0 9996 2 28895 98.2051 329.1708 0014347 281.7170 78.2425 14.67858692997991 CO-65 1 32785U 08021C 24193.48202950 .00004418 00000-0 38795-3 0 9997 2 32785 97.7559 158.6128 0009392 241.2751 118.7527 14.97069009879117 AAUSAT2 1 32788U 08021F 24193.49797165 .00022705 00000-0 10959-2 0 9998 2 32788 97.5949 173.8282 0008090 94.3029 265.9129 15.18652138882011 CO-66 1 32791U 08021J 24193.41562596 .00009472 00000-0 68238-3 0 9992 2 32791 97.6898 164.4585 0004428 205.7810 154.3196 15.04383647880168 RS-30 1 32953U 08025A 24193.69880407 .00000029 00000-0 13536-3 0 9990 2 32953 82.5019 74.2406 0020511 52.4798 307.8142 12.43143458732176 PRISM 1 33493U 09002B 24193.87113322 .00025200 00000-0 11468-2 0 9990 2 33493 98.2028 243.6434 0013168 159.5511 200.6252 15.20627425842808 NOAA-19 1 33591U 09005A 24193.87174514 .00000277 00000-0 17298-3 0 9997 2 33591 99.0457 249.9308 0013213 219.0782 140.9436 14.13044922795111 SRMSAT 1 37841U 11058D 24193.78980279 .00000473 00000-0 11387-3 0 9994 2 37841 19.9736 7.9772 0011856 5.3839 24.6045 14.11138446658262 RS-40 1 38735U 12041C 24193.57380695 .00000037 00000-0 19337-3 0 9992 2 38735 82.4766 154.6826 0017471 161.1710 199.0020 12.42611568542200 ZACUBE-1 1 39417U 13066B 24193.50737811 .00005822 00000-0 60100-3 0 9998 2 39417 97.7352 148.9346 0052349 80.5931 280.1199 14.89524089575202 Delfi-N3xt 1 39428U 13066N 24193.36372745 .00008926 00000-0 11260-2 0 9995 2 39428 97.8365 111.0625 0100716 11.4967 348.8511 14.78601716569848 GOMX-1 1 39430U 13066Q 24193.58215197 .00002213 00000-0 37175-3 0 9996 2 39430 97.7293 66.4891 0139771 174.6724 185.6006 14.64313579566614 LO-74 1 39440U 13066AA 24193.59347724 .00003830 00000-0 45176-3 0 9996 2 39440 97.8133 136.7417 0069088 192.9576 166.9866 14.83610687571955 AO-73 1 39444U 13066AE 24193.41902033 .00007615 00000-0 72990-3 0 9990 2 39444 97.7200 152.0344 0049397 61.8996 298.7203 14.92486669573721 SPROUT 1 39770U 14029E 24193.68289895 .00250429 00000-0 32023-2 0 9990 2 39770 98.0068 349.0999 0004530 251.5921 108.4841 15.58364506551458 DTUSAT-2 1 40030U 14033W 24193.58808407 .00006533 00000-0 54671-3 0 9990 2 40030 98.0077 146.6823 0010593 73.8834 286.3553 14.98777543546351 EO-80 1 40032U 14033Y 24193.48946624 .00007789 00000-0 64947-3 0 9996 2 40032 98.0079 146.5861 0012470 79.3247 280.9378 14.98830638546834 XW-2C 1 40906U 15049H 24193.62940113 .00029041 00000-0 63379-3 0 9990 2 40906 97.4769 211.1013 0007876 194.0398 166.0632 15.44147348488245 XW-2D 1 40907U 15049J 24193.65187358 .00050300 00000-0 81543-3 0 9993 2 40907 97.4710 213.9189 0007685 178.5966 181.5309 15.52588767488495 LILACSAT-2 1 40908U 15049K 24193.77388571 .00009415 00000-0 35881-3 0 9992 2 40908 97.5234 202.6676 0010158 260.6386 99.3704 15.26880147487247 XW-2B 1 40911U 15049N 24193.62655264 .00046409 00000-0 77662-3 0 9993 2 40911 97.4684 213.9488 0007480 181.1827 178.9409 15.51719768488353 IO-86 1 40931U 15052B 24180.14795698 .00001574 00000-0 12542-3 0 9998 2 40931 5.9997 274.4192 0013395 238.9714 120.9097 14.77898591473081 ChubuSat-2 1 41338U 16012B 24193.49955095 .00005057 00000-0 30921-3 0 9999 2 41338 30.9999 234.2964 0011323 121.6884 238.4859 15.08617658461276 ChubuSat-3 1 41339U 16012C 24193.51849681 .00004345 00000-0 26938-3 0 9998 2 41339 31.0064 232.8107 0011348 126.1537 234.0152 15.08007199461256 Horyu-4 1 41340U 16012D 24193.28989449 .00011285 00000-0 54938-3 0 9993 2 41340 31.0013 178.4397 0010397 218.6724 141.3172 15.17062263461813 Lapan A3 1 41603U 16040E 24193.64509248 .00003791 00000-0 15220-3 0 9995 2 41603 97.1414 206.2595 0012499 24.0684 336.1136 15.25473836446955 Pratham 1 41783U 16059A 24193.58343213 .00001028 00000-0 19930-3 0 9998 2 41783 97.8355 211.7747 0031153 304.7578 55.0694 14.64973681416119 CAS-2T 1 41847U 16066G 24193.25868367 .00002399 00000-0 35467-3 0 9998 2 41847 98.4593 264.3792 0354786 104.8816 259.1943 14.41406713402963 CAS-4B 1 42759U 17034B 24193.67948722 .00016598 00000-0 58260-3 0 9999 2 42759 43.0172 88.0427 0010959 157.4031 202.7306 15.29110402391154 CAS-4A 1 42761U 17034D 24193.67901015 .00017310 00000-0 60513-3 0 9993 2 42761 43.0214 86.3788 0010220 171.1550 188.9484 15.29225363391161 Aalto 1 1 42775U 17036L 24193.61185112 .00134656 00000-0 92529-3 0 9991 2 42775 97.0981 223.6573 0007142 126.0043 234.1885 15.74244189392942 D-SAT 1 42794U 17036AF 24193.46857257 .00008527 00000-0 58829-3 0 9993 2 42794 97.4818 174.4769 0110672 67.1939 294.0931 15.01102427384393 TechnoSat 1 42829U 17042E 24193.78474420 .00004326 00000-0 38168-3 0 9998 2 42829 97.3855 13.4780 0012091 359.8396 0.2821 14.96831994380854 AO-91 1 43017U 17073E 24193.57400374 .00006125 00000-0 37929-3 0 9999 2 43017 97.5740 68.2087 0208369 211.8087 147.0411 14.93824304359301 TianYi 2 1 43155U 18008A 24193.67721011 .00163362 00000-0 14124-2 0 9994 2 43155 97.2298 248.3226 0002070 289.7944 70.3094 15.68688263358738 Zhou Enlai 1 43156U 18008B 24193.09334842 .01226122 84197-3 19946-2 0 9997 2 43156 97.2261 250.6701 0010719 251.1284 108.8835 16.03450643358742 TianYi 6 1 43158U 18008D 24193.87158702 .00067183 00000-0 11597-2 0 9995 2 43158 97.2534 242.5976 0003633 14.2839 345.8515 15.50776350358297 S-Net D 1 43186U 18014G 24193.72416784 .00005164 00000-0 36911-3 0 9993 2 43186 97.5889 95.1363 0008304 286.4267 73.6047 15.04880823352193 S-Net B 1 43187U 18014H 24193.72654400 .00005168 00000-0 36939-3 0 9997 2 43187 97.5897 95.0901 0009158 280.2658 79.7536 15.04873489352194 S-Net A 1 43188U 18014J 24193.32634065 .00005019 00000-0 35888-3 0 9996 2 43188 97.5904 94.8115 0009033 282.8804 77.1413 15.04877743352138 S-Net C 1 43189U 18014K 24193.72863391 .00005170 00000-0 36937-3 0 9991 2 43189 97.5919 95.1595 0010838 272.0049 87.9936 15.04875338350740 Ten-Koh 1 43677U 18084G 24193.41875236 .00002986 00000-0 26987-3 0 9993 2 43677 98.0654 347.6668 0013124 298.5694 61.4205 14.96218566310342 PO-101 1 43678U 18084H 24193.69830583 .00001739 00000-0 16288-3 0 9998 2 43678 98.0742 352.4082 0008192 314.7767 45.2785 14.95416122310582 QO-100 1 43700U 18090A 24193.49067751 .00000151 00000-0 00000+0 0 9996 2 43700 0.0167 31.1816 0002306 121.7666 339.4035 1.00273044 20842 MinXSS-2 1 43758U 18099A 24193.16619332 .00009821 00000-0 61282-3 0 9996 2 43758 97.5525 255.1647 0015576 230.7776 129.2071 15.09609405306402 AO-95 1 43770U 18099N 24193.62240269 .00007635 00000-0 52349-3 0 9995 2 43770 97.5442 250.9516 0011804 278.6554 81.3336 15.06253249306249 RANGE-B 1 43772U 18099Q 24193.57384886 .00012764 00000-0 77548-3 0 9992 2 43772 97.5226 254.4660 0005879 171.6995 188.4333 15.10599817306409 RANGE-A 1 43773U 18099R 24193.54592772 .00004893 00000-0 37071-3 0 9996 2 43773 97.5016 246.0021 0011534 243.4149 116.5895 15.02666787306091 MOVE-II 1 43780U 18099Y 24193.17788373 .00019827 00000-0 10085-2 0 9995 2 43780 97.5197 255.9586 0005524 241.2066 118.8613 15.16861187306561 SNUSat 2 1 43782U 18099AA 24193.71777100 .00007432 00000-0 52193-3 0 9999 2 43782 97.5104 250.0628 0014241 213.9264 146.1053 15.05336714306266 SnugLite 1 43784U 18099AC 24193.11833735 .00007813 00000-0 53205-3 0 9990 2 43784 97.4923 248.8070 0004005 211.0779 149.0212 15.06543775306244 ITASat 1 1 43786U 18099AE 24193.60243459 .00005304 00000-0 38090-3 0 9992 2 43786 97.5081 250.1820 0015438 267.9752 91.9707 15.04619426306243 EAGLET 1 1 43790U 18099AJ 24193.60669923 .00003999 00000-0 30034-3 0 9993 2 43790 97.5271 250.6761 0011805 242.0161 117.9870 15.03104541305942 ESEO 1 43792U 18099AL 24193.55828314 .00002701 00000-0 22285-3 0 9999 2 43792 97.5131 247.3325 0010410 231.6455 128.3834 14.99790536305854 CSIM 1 43793U 18099AM 24193.16973673 .00018437 00000-0 94419-3 0 9997 2 43793 97.5277 257.6900 0011913 221.2448 138.7886 15.16589228306414 JO-97 1 43803U 18099AX 24193.59116499 .00009299 00000-0 60951-3 0 9991 2 43803 97.5175 251.7243 0009441 211.0519 149.0152 15.07877812306372 Suomi 100 1 43804U 18099AY 24193.12403562 .00007676 00000-0 51468-3 0 9991 2 43804 97.5243 251.0606 0015278 214.8729 145.1498 15.07039258306288 ISAT 1 43879U 18111D 24193.71626048 .00010680 00000-0 63958-3 0 9995 2 43879 97.6165 99.3094 0010616 275.4293 84.5726 15.11141393301103 UWE-4 1 43880U 18111E 24193.51953322 .00009364 00000-0 57676-3 0 9990 2 43880 97.6089 99.0711 0014245 287.2011 72.7658 15.10119741303100 Sparrow 1 43881U 18111F 24193.67907145 .00012137 00000-0 71610-3 0 9996 2 43881 97.6256 101.2206 0008500 326.8895 33.1802 15.11665056301183 Prox-1 1 44339U 19036A 24193.73119800 .00010939 00000-0 18529-2 0 9999 2 44339 24.0001 67.4604 0008781 275.6342 84.3150 14.67393769268947 SONATE 1 44400U 19038Q 24193.52298305 .00021461 00000-0 62550-3 0 9991 2 44400 97.7125 188.7233 0015976 29.1032 331.1098 15.35274819277817 Taurus 1 1 44530U 19059C 24193.64109247 .00006293 00000-0 14474-2 0 9994 2 44530 98.5781 314.4640 0010196 343.1430 16.9426 14.55736231255325 Duchifat 3 1 44854U 19089C 24193.87552027 .00015476 00000-0 76289-3 0 9995 2 44854 36.9556 259.0246 0005899 288.8023 71.2084 15.17277780251950 TO-108 1 44881U 19093C 24193.65496313 .00001346 00000-0 16851-3 0 9991 2 44881 97.8279 269.9665 0013152 239.7691 120.2222 14.83834125246676 FloripaSat 1 1 44885U 19093G 24193.65360857 .00006243 00000-0 64296-3 0 9995 2 44885 97.8405 276.0462 0011614 228.7939 131.2278 14.90573304247018 RS-44 1 44909U 19096E 24193.19156366 .00000025 00000-0 58973-4 0 9990 2 44909 82.5209 88.8283 0217590 355.4109 4.4993 12.79731271212040 BY70-2 1 45857U 20042B 24193.70303905 .00193685 00000-0 47286-2 0 9994 2 45857 97.9040 289.0231 0007747 191.6710 168.4356 15.40057757218314 UPMSat 2 1 46276U 20061E 24193.61845544 .00016522 00000-0 49043-3 0 9999 2 46276 97.2956 259.5950 0002206 84.5944 275.5551 15.34870995213922 AmicalSat 1 46287U 20061R 24193.18004194 .00033408 00000-0 86299-3 0 9997 2 46287 97.3471 260.4780 0003407 136.3284 223.8231 15.39053615213250 SALSAT 1 46495U 20068K 24193.47403575 .00006076 00000-0 34248-3 0 9991 2 46495 97.8175 153.3842 0012342 224.1916 135.8330 15.13523552207981 UVSQ-SAT 1 47438U 21006AB 24193.57708582 .00064236 00000-0 10969-2 0 9994 2 47438 97.3232 254.4431 0007149 130.5693 229.6182 15.51073975192516 YUSAT 1 1 47439U 21006AC 24193.23920756 .00405276 00000-0 16796-2 0 9994 2 47439 97.3129 259.9246 0005274 201.1327 158.9726 15.84780528192841 SOMP 2b 1 47445U 21006AJ 24193.56595404 .00050353 00000-0 97748-3 0 9994 2 47445 97.3199 252.5943 0007824 134.7405 225.4483 15.47461945192421 IDEASSat 1 47458U 21006AX 24193.71774360 .00041839 00000-0 90449-3 0 9995 2 47458 97.3311 253.2035 0007922 135.9226 224.2656 15.44350519192378 CubeSX-Sirius-HSE 1 47951U 21022V 24193.69542037 .00021289 00000-0 80860-3 0 9995 2 47951 97.4568 92.0116 0015804 58.4999 301.7782 15.26722034182313 CubeSX-HSE 1 47952U 21022W 24193.71247809 .00020724 00000-0 78435-3 0 9996 2 47952 97.4571 92.1245 0015742 57.8809 302.3955 15.26845409182328 KSU-Cubesat 1 47954U 21022Y 24193.65157749 .00026058 00000-0 89385-3 0 9996 2 47954 97.4576 93.4999 0014461 54.6461 305.6129 15.30044849182122 GRBAlpha 1 47959U 21022AD 24193.67525684 .00021524 00000-0 81215-3 0 9997 2 47959 97.4571 92.2416 0015529 57.9819 302.2926 15.26941595181140 Orbicraft-Zorkiy 1 47960U 21022AE 24193.70203692 .00023054 00000-0 81582-3 0 9992 2 47960 97.4614 93.6375 0014639 56.5122 303.7514 15.29052622181902 STECCO 1 47962U 21022AG 24193.73136664 .00208601 00000-0 17716-2 0 9991 2 47962 97.4529 104.7105 0005818 87.1254 273.0673 15.68973047181966 MO-110 1 47964U 21022AJ 24193.69669184 .00466692 00000-0 20738-2 0 9990 2 47964 97.4525 106.9548 0006389 122.8144 237.3741 15.83138880182097 TUBIN 1 48900U 21059X 24193.63801662 .00015770 00000-0 52792-3 0 9997 2 48900 97.6491 339.0031 0006381 8.6707 351.4643 15.31029011168660 LEDSAT 1 49069U 21073D 24193.13235304 .00016505 00000-0 64728-3 0 9998 2 49069 97.4363 264.1156 0019050 194.9420 165.1257 15.25658399160109 CUTE 1 49263U 21088D 24193.15704195 .00016635 00000-0 75777-3 0 9991 2 49263 97.4952 259.0057 0012932 4.2165 355.9177 15.20675428153281 TeikyoSat 4 1 49396U 21102B 24193.58825971 .00002530 00000-0 18450-3 0 9992 2 49396 97.4588 237.7233 0013272 184.7260 175.3843 15.04523116146420 Z-Sat 1 49399U 21102E 24193.88096166 .00005616 00000-0 36039-3 0 9995 2 49399 97.4291 239.6166 0020791 169.0772 191.0912 15.08691010146715 KOSEN 1 1 49402U 21102H 24193.87117722 .00007521 00000-0 44136-3 0 9995 2 49402 97.4220 241.1368 0019770 152.4884 207.7397 15.11856265146877 HO-113 1 50466U 21131B 24193.65918516 .00000807 00000-0 27197-3 0 9993 2 50466 98.5285 278.6152 0005130 63.7921 296.3794 14.39711063133527 Tevel-3 1 50988U 22002E 24193.60669923 .00330582 00000-0 16890-2 0 9993 2 50988 97.3695 270.9467 0007376 236.4756 123.5808 15.80435795138895 Tevel-8 1 50989U 22002F 24193.71638325 .00325955 00000-0 16895-2 0 9991 2 50989 97.3729 271.1538 0007475 237.4278 122.6268 15.80129120138900 Tevel-5 1 50998U 22002Q 24193.65301075 .00943061 43675-3 18068-2 0 9999 2 50998 97.3666 272.9471 0012479 252.4379 107.5536 16.00486136139035 Tevel-6 1 50999U 22002R 24193.67536658 .00860928 34809-3 17970-2 0 9999 2 50999 97.3600 272.8913 0011407 249.3984 110.6070 15.98974287139034 Tevel-1 1 51013U 22002AF 24193.64457548 .00315526 00000-0 16519-2 0 9994 2 51013 97.3699 270.8198 0007531 234.9350 125.1211 15.79933881138898 IRIS-A 1 51044U 22002BN 24193.21975922 .00018960 00000-0 60335-3 0 9990 2 51044 97.3828 259.6591 0004264 309.7718 50.3148 15.32624909138106 Tevel-7 1 51062U 22002CG 24193.25309716 .00326754 00000-0 16801-2 0 9997 2 51062 97.3706 270.6443 0007462 234.7205 125.3365 15.80304426138837 Tevel-4 1 51063U 22002CH 24193.63158037 .00299636 00000-0 16251-2 0 9995 2 51063 97.3713 270.8934 0007317 234.2516 125.8071 15.79192140138882 Tevel-2 1 51069U 22002CP 24193.66655947 .00344449 00000-0 17499-2 0 9994 2 51069 97.3692 270.9792 0007453 235.9592 124.0968 15.80524734138909 OreSat0 1 52017U 22026K 24193.78151057 .00087268 00000-0 11648-2 0 9993 2 52017 97.4922 209.2497 0014589 126.8391 233.4205 15.57668626129531 Planetum 1 1 52738U 22057G 24193.33245614 .00044472 00000-0 98482-3 0 9993 2 52738 97.5685 320.3871 0004417 74.8491 285.3245 15.43646190118299 Foresail-1 1 52766U 22057AL 24193.41472216 .00019912 00000-0 62443-3 0 9992 2 52766 97.5852 319.5136 0009536 51.9917 308.2184 15.33051760118161 SNUGLITE 2 1 52899U 22065F 24193.36995216 .00001645 00000-0 34508-3 0 9997 2 52899 98.1228 334.0514 0008937 80.5920 279.6291 14.60932405107790 IO-117 1 53106U 22080B 24192.31461556 -.00000003 00000-0 00000-0 0 9990 2 53106 70.1322 184.4864 0007578 102.1342 258.0167 6.42557683 46754 SelfieSat 1 53951U 22057BC 24193.35440170 .00112236 00000-0 13154-2 0 9993 2 53951 97.5688 324.8473 0001357 48.9211 311.2163 15.61146172118551 FO-118 1 54684U 22167C 24193.64596840 .00028039 00000-0 91682-3 0 9997 2 54684 97.6080 339.0812 0009810 64.4105 295.8149 15.31636284 88040 SSS-2B 1 56184U 23054G 24193.61874586 .00037593 00000-0 85418-3 0 9998 2 56184 97.3653 91.8451 0009458 90.8504 269.3827 15.42877736 69900 CIRBE 1 56188U 23054L 24193.62520240 .00078951 00000-0 11059-2 0 9990 2 56188 97.3575 94.2150 0007480 93.9612 266.2498 15.56491843 70084 INSPIRE-Sat 7 1 56211U 23054AK 24193.25722642 .00096248 00000-0 12153-2 0 9991 2 56211 97.3582 95.1899 0009028 73.3718 286.8529 15.59196083 70105 RoseyCubesat 1 1 56212U 23054AL 24193.68766291 .00135533 00000-0 13354-2 0 9992 2 56212 97.3595 96.6378 0008782 77.9360 282.2883 15.65481789 70231 SO-120 1 56992U 23084BU 24193.59993950 .00028929 00000-0 10048-2 0 9991 2 56992 97.5336 313.2514 0010919 295.5607 64.4504 15.29661675 59914 MRC-100 1 56993U 23084BV 24193.27404083 .00034112 00000-0 11011-2 0 9993 2 56993 97.5335 313.4031 0010418 294.2280 65.7872 15.32003212 59909 UmKA 1 (RS40S) 1 57172U 23091G 24193.68837058 .00006351 00000-0 41662-3 0 9998 2 57172 97.6100 245.4890 0017405 43.1000 317.1587 15.07897598 57186 CubeBel-2 (EU11S) 1 57175U 23091K 24193.69309939 .00008652 00000-0 55433-3 0 9991 2 57175 97.6097 245.4710 0015915 54.8582 305.4135 15.08675350 57183 VERONIKA 1 58261U 23174F 24193.65823222 .00018804 00000-0 82082-3 0 9992 2 58261 97.4592 268.2312 0013189 153.8811 206.3093 15.22104332 37436 KAFASAT 1 58317U 23174BP 24193.61916458 .00025276 00000-0 99183-3 0 9995 2 58317 97.4537 268.8708 0012181 134.2731 225.9509 15.25649747 37488 ENSO 1 58470U 23185J 24193.69690520 .00015796 00000-0 65127-3 0 9991 2 58470 97.4247 260.1723 0012805 186.0112 174.0974 15.24081952 33875 EIRSAT-1 1 58472U 23185L 24193.66039140 .00018601 00000-0 75194-3 0 9998 2 58472 97.4242 260.1991 0012422 186.4792 173.6287 15.24713764 33877 SO-121 1 58567U 23174CY 24193.17404223 .00052645 00000-0 16722-2 0 9992 2 58567 97.4519 269.0171 0012835 146.4083 213.7975 15.32387981 37459 SONATE-2 1 59112U 24043Q 24193.34754567 .00011208 00000-0 53474-3 0 9999 2 59112 97.4815 316.9376 0014551 205.4236 154.6284 15.19151400 19475 KASHIWA 1 59508U 98067WH 24193.40755927 .00238177 00000-0 14197-2 0 9997 2 59508 51.6268 187.3484 0011848 46.6059 313.5925 15.76591473 14308 OBJECT A 1 60203U 24125A 24190.56946133 .00010916 00000-0 51667-3 0 9993 2 60203 97.3213 43.3332 0025925 245.7203 167.8006 15.19219263 672 OBJECT B 1 60204U 24125B 24190.56452311 .00019288 00000-0 86635-3 0 9998 2 60204 97.3223 43.3417 0021463 231.7148 181.9989 15.20989274 668 OBJECT C 1 60205U 24125C 24190.56566853 .00012911 00000-0 58868-3 0 9999 2 60205 97.3217 43.3389 0021360 237.6174 176.1545 15.20564316 660 OBJECT D 1 60206U 24125D 24190.56883171 .00008496 00000-0 39578-3 0 9995 2 60206 97.3220 43.3375 0025651 238.4011 181.7072 15.19848381 668 OBJECT E 1 60207U 24125E 24190.57022269 .00008565 00000-0 40054-3 0 9998 2 60207 97.3220 43.3377 0025917 239.8777 185.5939 15.19705879 668 OBJECT F 1 60208U 24125F 24190.57167409 .00009093 00000-0 42753-3 0 9990 2 60208 97.3219 43.3380 0026083 241.2175 188.9188 15.19499130 679 MESAT1 1 60209U 24125G 24190.56980029 .00010442 00000-0 49625-3 0 9996 2 60209 97.3214 43.3326 0025220 247.3842 166.3046 15.19109044 669 OBJECT H 1 60210U 24125H 24190.61607706 .00008108 00000-0 30231-3 0 9991 2 60210 97.3131 44.6467 0050243 238.0504 185.4372 15.26490133 668 /EX
